Location: M�t�o Espelette
(43.3451°N, 1.4613°W)
Time: 11:53:04
(UTC+02:00)

ISS - Visible Passes

Search period start: 27 May 2017 00:00
Search period end: 06 June 2017 00:00
Orbit: 402 x 408 km, 51.6° (Epoch: 27 May)

Date Brightness Start Highest point End Pass type
(mag) Time Alt. Az. Time Alt. Az. Time Alt. Az.
27 May -1.0 00:57:10 10° NW 00:59:40 19° N 01:02:09 10° NE visible
27 May -1.5 02:34:08 10° NW 02:36:56 25° NNE 02:39:43 10° ENE visible
27 May -4.0 04:10:26 10° WNW 04:13:44 82° SSW 04:17:00 10° SE visible
27 May -1.7 05:49:07 10° WSW 05:49:42 10° SW 05:50:18 10° SW visible
27 May -3.4 22:27:10 10° WSW 22:30:27 67° NNW 22:33:44 10° NE visible
28 May -1.1 00:04:45 10° WNW 00:07:23 22° N 00:10:02 10° NE visible
28 May -1.2 01:42:06 10° NW 01:44:41 21° N 01:47:17 10° ENE visible
28 May -1.9 03:18:25 10° NW 03:19:58 25° NW 03:19:58 25° NW visible
28 May -1.5 23:12:17 10° WNW 23:15:09 26° NNW 23:18:00 10° NE visible
29 May -1.0 00:49:56 10° NW 00:52:23 19° N 00:54:51 10° NE visible
29 May -1.9 02:26:26 10° NW 02:28:37 30° NNW 02:28:37 30° NNW visible
29 May -2.0 22:19:51 10° W 22:22:55 36° NNW 22:26:01 10° NE visible
29 May -1.0 23:57:38 10° NW 00:00:05 19° N 00:02:33 10° NE visible
30 May -1.8 01:34:27 10° NW 01:37:20 27° NNE 01:37:45 26° NNE visible
30 May -1.1 23:05:11 10° WNW 23:07:46 21° N 23:10:21 10° NE visible
31 May -1.4 00:42:23 10° NW 00:45:04 22° NNE 00:47:03 14° ENE visible
31 May -1.4 02:18:41 10° NW 02:19:41 18° NW 02:19:41 18° NW visible
31 May -1.4 22:12:41 10° WNW 22:15:28 24° NNW 22:18:15 10° NE visible
31 May -1.2 23:50:15 10° NW 23:52:45 20° N 23:55:14 10° NE visible
01 Jun -2.3 01:26:39 10° NW 01:29:06 36° NNW 01:29:06 36° NNW visible
01 Jun -1.1 22:57:57 10° NW 23:00:24 19° N 23:02:50 10° NE visible
02 Jun -2.1 00:34:38 10° NW 00:37:37 30° NNE 00:38:33 25° NE visible
02 Jun -0.9 02:11:01 10° WNW 02:11:11 11° WNW 02:11:11 11° WNW visible
02 Jun -1.6 23:42:34 10° NW 23:45:19 24° NNE 23:48:02 10° ENE visible
03 Jun -2.1 01:18:51 10° WNW 01:20:40 30° NW 01:20:40 30° NW visible
03 Jun -1.4 22:50:25 10° NW 22:52:59 20° N 22:55:31 10° ENE visible
04 Jun -3.2 00:26:46 10° NW 00:30:00 51° NNE 00:30:12 50° NE visible
04 Jun -2.4 23:34:42 10° NW 23:37:46 34° NNE 23:39:46 17° E visible
05 Jun -1.6 01:11:10 10° WNW 01:12:24 20° W 01:12:24 20° W visible
05 Jun -1.9 22:42:37 10° NW 22:45:27 26° NNE 22:48:16 10° ENE visible
